EW5622 Weather Reports


Display with metric or nautical units.
time (UTC)temp
F
wind
direction
speed
MPH
gust
MPH
rain 1hr
in
rain 24hr
in
rain mn
in
humidity
%
barometer
mb
20260902052703 55 0 0.0 0.0 0.00 0.00 0.00 98 1021.1
20260902051803 55 0 0.0 0.0 0.00 0.00 0.00 98 1021.1
20260902050905 55 0 0.0 0.0 0.00 0.00 0.00 98 1021.1
20260902050006 56 0 0.0 0.0 0.00 0.00 0.00 98 1021.1
20260902045403 56 0 0.0 0.0 0.00 0.00 0.00 98 1021.1
20260902044715 56 0 0.0 0.0 0.00 0.00 0.00 98 1021.1
20260902043603 56 0 0.0 0.0 0.00 0.00 0.00 98 1021.1
20260902042914 56 0 0.0 0.0 0.00 0.00 0.00 98 1021.1
20260902042013 56 0 0.0 0.0 0.00 0.00 0.00 98 1020.1
20260902040904 56 0 0.0 0.0 0.00 0.00 0.00 98 1021.1
20260902040005 56 0 0.0 0.0 0.00 0.00 0.00 98 1021.1
20260902035403 57 0 0.0 0.0 0.00 0.00 0.00 98 1021.1
20260902034503 57 0 0.0 0.0 0.00 0.00 0.00 98 1021.1
20260902033603 57 0 0.0 0.0 0.00 0.00 0.00 98 1021.1
20260902032705 57 0 0.0 0.0 0.00 0.00 0.00 98 1021.1
20260902031803 57 0 0.0 0.0 0.00 0.00 0.00 98 1021.1
20260902030904 58 0 0.0 0.0 0.00 0.00 0.00 98 1021.1
20260902030003 58 0 0.0 0.0 0.00 0.00 0.00 98 1021.1
20260902025403 58 0 0.0 0.0 0.00 0.00 0.00 98 1021.1
20260902024503 58 0 0.0 0.0 0.00 0.00 0.00 98 1021.1
20260902023814 58 0 0.0 0.0 0.00 0.00 0.00 98 1021.1
20260902022703 58 0 0.0 0.0 0.00 0.00 0.00 98 1021.1
20260902021805 58 0 0.0 0.0 0.00 0.00 0.00 98 1020.1
20260902020903 58 0 0.0 0.0 0.00 0.00 0.00 98 1020.1
20260902020003 58 0 0.0 0.0 0.00 0.00 0.00 98 1020.1
20260902015403 58 0 0.0 0.0 0.00 0.00 0.00 98 1020.1
20260902014504 59 0 0.0 0.0 0.00 0.00 0.00 98 1020.1
20260902013603 59 0 0.0 0.0 0.00 0.00 0.00 98 1020.1
20260902012705 59 0 0.0 0.0 0.00 0.00 0.00 97 1020.1
20260902011805 59 0 0.0 0.0 0.00 0.00 0.00 97 1020.1
20260902010909 59 0 0.0 0.0 0.00 0.00 0.00 97 1020.1
20260902010213 60 0 0.0 0.0 0.00 0.00 0.00 96 1020.1
20260902005403 60 0 0.0 0.0 0.00 0.00 0.00 96 1020.1
20260902004503 60 0 0.0 0.0 0.00 0.00 0.00 96 1020.1
20260902003603 60 0 0.0 0.0 0.00 0.00 0.00 96 1021.1
20260902002915 60 0 0.0 0.0 0.00 0.00 0.00 95 1021.1
20260902001803 61 0 0.0 0.0 0.00 0.00 0.00 95 1020.1
20260902000905 61 0 0.0 0.0 0.00 0.00 0.00 94 1020.1
20260902000003 61 0 0.0 0.0 0.00 0.00 0.00 94 1020.1
20260901235614 61 0 0.0 0.0 0.00 0.00 0.00 94 1020.1
20260901234503 62 0 0.0 0.0 0.00 0.00 0.00 93 1020.1
20260901233813 62 0 0.0 0.0 0.00 0.00 0.00 93 1020.1
20260901232703 62 0 0.0 0.0 0.00 0.00 0.00 93 1020.1
20260901231804 62 0 0.0 0.0 0.00 0.00 0.00 92 1020.1
20260901230903 63 0 0.0 0.0 0.00 0.00 0.00 92 1020.1
20260901230005 63 0 0.0 0.0 0.00 0.00 0.00 91 1020.1
20260901225405 63 0 0.0 0.0 0.00 0.00 0.00 91 1020.1
20260901224503 64 0 0.0 0.0 0.00 0.00 0.00 91 1020.1
20260901223603 64 0 0.0 0.0 0.00 0.00 0.00 91 1020.1
20260901222703 65 0 0.0 0.0 0.00 0.00 0.00 90 1020.1
20260901221803 65 0 0.0 0.0 0.00 0.00 0.00 90 1020.1
20260901220903 65 0 0.0 0.0 0.00 0.00 0.00 90 1020.1
20260901220006 65 0 0.0 0.0 0.00 0.00 0.00 90 1020.1
20260901215403 66 0 0.0 0.0 0.00 0.00 0.00 89 1020.1
20260901214505 66 0 0.0 0.0 0.00 0.00 0.00 89 1020.1
20260901213814 66 0 0.0 0.0 0.00 0.00 0.00 88 1020.1
20260901212703 67 0 0.0 0.0 0.00 0.00 0.00 87 1020.1
20260901211803 67 0 0.0 0.0 0.00 0.00 0.00 87 1020.1
20260901210904 67 0 0.0 0.0 0.00 0.00 0.00 86 1020.1
20260901210005 68 0 0.0 0.0 0.00 0.00 0.00 86 1020.1
20260901205405 68 0 0.0 0.0 0.00 0.00 0.00 85 1020.1
20260901204714 68 0 0.0 0.0 0.00 0.00 0.00 85 1020.1
20260901203603 69 0 0.0 0.0 0.00 0.00 0.00 85 1020.1
20260901202705 69 0 0.0 0.0 0.00 0.00 0.00 84 1020.1
20260901201803 69 0 0.0 0.0 0.00 0.00 0.00 84 1020.1
20260901200903 69 0 0.0 0.0 0.00 0.00 0.00 83 1020.1
20260901200213 69 0 0.0 0.0 0.00 0.00 0.00 83 1020.1
20260901195405 70 0 0.0 0.0 0.00 0.00 0.00 82 1019.1
20260901194503 70 360 0.0 56.0 0.00 0.00 0.00 82 1019.1
20260901193603 70 1 0.0 56.0 0.00 0.00 0.00 82 1019.1
20260901192705 70 18 3.0 37.0 0.00 0.00 0.00 81 1019.1
20260901191803 70 345 0.0 23.0 0.00 0.00 0.00 81 1019.1
20260901190903 71 353 0.0 4.0 0.00 0.00 0.00 81 1019.1
20260901190215 71 2 3.0 4.0 0.00 0.00 0.00 81 1019.1
20260901185614 71 344 0.0 4.0 0.00 0.00 0.00 81 1019.1
20260901184504 71 360 51.0 51.0 0.00 0.00 0.00 80 1019.1
20260901183605 71 2 3.0 6.0 0.00 0.00 0.00 80 1019.1
20260901182703 72 2 3.0 30.0 0.00 0.00 0.00 79 1019.1
20260901182016 72 355 0.0 4.0 0.00 0.00 0.00 79 1018.1
20260901180905 72 353 36.0 36.0 0.00 0.00 0.00 78 1018.1
20260901180003 73 15 6.0 6.0 0.00 0.00 0.00 77 1018.1
20260901175404 73 356 3.0 39.0 0.00 0.00 0.00 76 1018.1
20260901174503 74 6 0.0 6.0 0.00 0.00 0.00 75 1018.1
20260901173603 74 7 3.0 7.0 0.00 0.00 0.00 75 1018.1
20260901172703 75 9 4.0 5.0 0.00 0.00 0.00 74 1018.1
20260901171803 75 355 2.0 6.0 0.00 0.00 0.00 74 1018.1
20260901170905 76 346 0.0 26.0 0.00 0.00 0.00 73 1018.1
20260901170003 76 345 26.0 32.0 0.00 0.00 0.00 72 1018.1
20260901165403 76 359 11.0 39.0 0.00 0.00 0.00 72 1018.1
20260901164505 75 348 1.0 35.0 0.00 0.00 0.00 72 1018.1
20260901163605 76 341 4.0 4.0 0.00 0.00 0.00 71 1018.1
20260901162703 76 3 4.0 9.0 0.00 0.00 0.00 71 1018.1
20260901161805 76 355 0.0 22.0 0.00 0.00 0.00 72 1018.1
20260901160903 76 354 4.0 6.0 0.00 0.00 0.00 72 1018.1
20260901160005 76 8 3.0 17.0 0.00 0.00 0.00 72 1018.1
20260901155403 75 9 4.0 22.0 0.00 0.00 0.00 72 1018.1
20260901154714 76 4 4.0 22.0 0.00 0.00 0.00 72 1018.1
20260901153605 75 352 0.0 5.0 0.00 0.00 0.00 72 1018.1
20260901152705 76 347 3.0 6.0 0.00 0.00 0.00 71 1018.1
20260901152012 76 355 6.0 6.0 0.00 0.00 0.00 70 1018.1
20260901150903 76 346 4.0 5.0 0.00 0.00 0.00 70 1018.1
20260901150003 77 1 0.0 7.0 0.00 0.00 0.00 69 1018.1
20260901145404 77 6 7.0 8.0 0.00 0.00 0.00 69 1018.1
20260901144503 77 343 8.0 22.0 0.00 0.00 0.00 69 1018.1
20260901143814 77 15 0.0 6.0 0.00 0.00 0.00 69 1018.1
20260901142705 77 330 1.0 32.0 0.00 0.00 0.00 68 1018.1
20260901142014 77 332 0.0 32.0 0.00 0.00 0.00 67 1018.1
20260901141113 78 339 0.0 4.0 0.00 0.00 0.00 67 1018.1
20260901140005 78 331 0.0 65.0 0.00 0.00 0.00 67 1018.1
20260901135405 78 329 23.0 65.0 0.00 0.00 0.00 68 1018.1
20260901134505 78 357 0.0 4.0 0.00 0.00 0.00 67 1018.1
20260901133603 78 3 0.0 37.0 0.00 0.00 0.00 67 1019.1
20260901132703 78 347 0.0 25.0 0.00 0.00 0.00 67 1019.1
20260901131803 79 357 3.0 5.0 0.00 0.00 0.00 66 1019.1
20260901130903 80 12 4.0 26.0 0.00 0.00 0.00 66 1019.1
20260901130003 80 333 0.0 2.0 0.00 0.00 0.00 66 1019.1
20260901125403 81 356 0.0 5.0 0.00 0.00 0.00 66 1019.1
20260901124505 81 344 0.0 9.0 0.00 0.00 0.00 66 1019.1
20260901123603 80 8 0.0 6.0 0.00 0.00 0.00 66 1019.1
20260901122703 81 315 6.0 27.0 0.00 0.00 0.00 65 1019.1
20260901122013 82 336 0.0 46.0 0.00 0.00 0.00 66 1019.1
20260901120903 83 355 1.0 37.0 0.00 0.00 0.00 66 1019.1
20260901120003 83 334 0.0 8.0 0.00 0.00 0.00 66 1019.1
20260901115614 83 339 0.0 6.0 0.00 0.00 0.00 66 1019.1
20260901114503 83 342 0.0 50.0 0.00 0.00 0.00 66 1019.1
20260901113606 84 360 24.0 24.0 0.00 0.00 0.00 64 1019.1
20260901112705 83 0 0.0 0.0 0.00 0.00 0.00 63 1019.1
20260901111803 82 48 0.0 39.0 0.00 0.00 0.00 65 1019.1
20260901110904 81 170 0.0 70.0 0.00 0.00 0.00 67 1019.1
20260901110003 81 0 0.0 0.0 0.00 0.00 0.00 68 1019.1
20260901105405 79 0 0.0 0.0 0.00 0.00 0.00 68 1019.1
20260901104503 80 0 0.0 0.0 0.00 0.00 0.00 69 1019.1
20260901103603 78 0 0.0 0.0 0.00 0.00 0.00 71 1020.1
20260901102705 79 327 0.0 3.0 0.00 0.00 0.00 73 1020.1
20260901101803 79 3 2.0 67.0 0.00 0.00 0.00 73 1019.1
20260901101114 78 337 0.0 26.0 0.00 0.00 0.00 75 1019.1
20260901100005 77 0 0.0 0.0 0.00 0.00 0.00 76 1020.1
20260901095405 77 0 0.0 0.0 0.00 0.00 0.00 77 1020.1
20260901094712 76 0 0.0 0.0 0.00 0.00 0.00 78 1020.1
20260901093603 76 10 0.0 39.0 0.00 0.00 0.00 79 1020.1
20260901092703 74 0 0.0 0.0 0.00 0.00 0.00 80 1020.1
20260901091806 74 0 0.0 0.0 0.00 0.00 0.00 81 1020.1
20260901090905 74 0 0.0 0.0 0.00 0.00 0.00 83 1020.1
20260901090005 73 45 0.0 31.0 0.00 0.00 0.00 85 1020.1
20260901085403 73 41 0.0 31.0 0.00 0.00 0.00 85 1019.1
20260901084716 72 22 0.0 4.0 0.00 0.00 0.00 86 1019.1
20260901083605 71 45 39.0 39.0 0.00 0.00 0.00 89 1020.1
20260901082915 71 22 0.0 11.0 0.00 0.00 0.00 89 1020.1
20260901081805 70 28 26.0 49.0 0.00 0.00 0.00 91 1020.1
20260901080903 69 90 26.0 26.0 0.00 0.00 0.00 92 1020.1
20260901080005 68 0 0.0 0.0 0.00 0.00 0.00 94 1020.1
20260901075405 67 9 0.0 77.0 0.00 0.00 0.00 95 1020.1
20260901074503 66 22 0.0 27.0 0.00 0.00 0.00 95 1020.1
20260901073603 65 0 0.0 0.0 0.00 0.00 0.00 97 1020.1
20260901072703 65 0 0.0 0.0 0.00 0.00 0.00 97 1020.1
20260901071803 65 22 0.0 13.0 0.00 0.00 0.00 98 1020.1
20260901070903 64 22 0.0 13.0 0.00 0.00 0.00 98 1020.1
20260901070003 63 0 0.0 0.0 0.00 0.00 0.00 98 1020.1
20260901065403 63 0 0.0 0.0 0.00 0.00 0.00 98 1020.1
20260901064503 62 22 0.0 25.0 0.00 0.00 0.00 98 1020.1
20260901063813 62 0 0.0 0.0 0.00 0.00 0.00 98 1020.1
20260901062914 61 0 0.0 0.0 0.00 0.00 0.00 98 1020.1
20260901061803 61 0 0.0 0.0 0.00 0.00 0.00 98 1020.1
20260901060903 61 0 0.0 0.0 0.00 0.00 0.00 98 1020.1
20260901060003 61 0 0.0 0.0 0.00 0.00 0.00 98 1020.1
20260901055616 61 0 0.0 0.0 0.00 0.00 0.00 98 1020.1
20260901054503 61 0 0.0 0.0 0.00 0.00 0.00 98 1020.1
20260901053603 61 0 0.0 0.0 0.00 0.00 0.00 98 1020.1